Santa Maria, CA

12:33 AM PDT on June 23, 2018 (GMT -0700)
Santa Maria Public Airport / Captain G. Allan Hancock Field

Weather History for KSMX - October, 2017

Change the Weather History Date:

Wednesday, October 11, 2017

  Actual Average Record
Temperature  
Mean Temperature 59 °F 62 °F  
Max Temperature 68 °F 73 °F 98 °F (1918)
Min Temperature 49 °F 50 °F 32 °F (1924)
Degree Days  
Heating Degree Days 6 4  
Month to date heating degree days 31 44  
Since 1 July heating degree days 98 261  
Cooling Degree Days 0 1  
Month to date cooling degree days 11 11  
Year to date cooling degree days 237 93  
Growing Degree Days 8 (Base 50)    
Moisture  
Dew Point 51 °F    
Average Humidity 82    
Maximum Humidity 100    
Minimum Humidity 63    
Precipitation  
Precipitation 0.00 in 0.01 in 0.52 in (1963)
Month to date precipitation 0.00 0.12  
Year to date precipitation 14.11 10.02  
Sea Level Pressure  
Sea Level Pressure 29.92 in    
Wind  
Wind Speed 4 mph (West)    
Max Wind Speed 14 mph    
Max Gust Speed 19 mph    
Visibility 6 miles    
Events      
T = Trace of Precipitation, MM = Missing Value Source: NWS Daily Summary

Daily Weather History Graph

Daily Weather History Graph

Search for Another Location

Airport or City:

Astronomy

Oct. 11, 2017 Rise Set
Actual Time 7:04 AM PDT 6:31 PM PDT
Civil Twilight 6:39 AM PDT 6:57 PM PDT
Nautical Twilight 6:10 AM PDT 7:26 PM PDT
Astronomical Twilight 5:40 AM PDT 7:55 PM PDT
Moon 11:49 PM PDT (10/11) 1:17 PM PDT (10/11)
Length of Visible Light 12h 17m
Length of Day
11h 26m
Waning Gibbous, 58% of the Moon is Illuminated
Oct 11
Waning Gibbous
Oct 12
Last Quarter
Oct 19
New
Oct 27
First Quarter
Nov 3
Full

Hourly Weather History & Observations

Time (PDT) Temp. Dew Point Humidity Pressure Visibility Wind Dir Wind Speed Gust Speed Precip Events Conditions
12:51 AM 52.0 °F 51.1 °F 97% 29.92 in 6.0 mi Calm Calm - N/A   Overcast
1:51 AM 52.0 °F 51.1 °F 97% 29.92 in 6.0 mi SSE 3.5 mph - N/A   Overcast
2:37 AM 52.0 °F 50.0 °F 93% 29.91 in 6.0 mi Calm Calm - N/A   Overcast
2:51 AM 51.1 °F 50.0 °F 96% 29.91 in 6.0 mi ESE 3.5 mph - N/A   Overcast
3:03 AM 51.1 °F 48.9 °F 92% 29.90 in 6.0 mi ESE 3.5 mph - N/A   Overcast
3:12 AM 51.1 °F 48.9 °F 92% 29.90 in 7.0 mi Calm Calm - N/A   Overcast
3:51 AM 51.1 °F 48.9 °F 92% 29.90 in 6.0 mi Calm Calm - N/A   Overcast
3:55 AM 50.0 °F 48.9 °F 96% 29.89 in 6.0 mi Calm Calm - N/A   Overcast
4:10 AM 51.1 °F 48.9 °F 92% 29.89 in 6.0 mi Calm Calm - N/A   Overcast
4:19 AM 51.1 °F 50.0 °F 96% 29.89 in 4.0 mi Calm Calm - N/A   Overcast
4:31 AM 51.1 °F 48.9 °F 92% 29.89 in 2.5 mi Calm Calm - N/A   Overcast
4:37 AM 50.0 °F 48.9 °F 96% 29.90 in 6.0 mi South 3.5 mph - N/A   Overcast
4:51 AM 50.0 °F 48.9 °F 96% 29.91 in 5.0 mi Calm Calm - N/A   Overcast
4:58 AM 50.0 °F 48.9 °F 96% 29.90 in 5.0 mi Calm Calm - N/A   Overcast
5:24 AM 50.0 °F 50.0 °F 100% 29.90 in 5.0 mi Calm Calm - N/A   Overcast
5:40 AM 50.0 °F 48.9 °F 96% 29.90 in 1.8 mi Calm Calm - N/A   Overcast
5:44 AM 48.9 °F 48.0 °F 97% 29.90 in 1.0 mi East 3.5 mph - N/A   Overcast
5:51 AM 48.9 °F 48.0 °F 97% 29.91 in 0.8 mi East 3.5 mph - N/A   Overcast
5:58 AM 50.0 °F 48.0 °F 93% 29.90 in 3.0 mi Calm Calm - N/A   Overcast
6:23 AM 50.0 °F 48.0 °F 93% 29.91 in 6.0 mi Calm Calm - N/A   Mostly Cloudy
6:37 AM 50.0 °F 48.0 °F 93% 29.91 in 5.0 mi Calm Calm - N/A   Mostly Cloudy
6:51 AM 48.9 °F 48.0 °F 97% 29.93 in 5.0 mi Calm Calm - N/A   Scattered Clouds
7:51 AM 51.1 °F 50.0 °F 96% 29.94 in 6.0 mi South 4.6 mph - N/A   Mostly Cloudy
8:51 AM 55.0 °F 53.1 °F 93% 29.96 in 5.0 mi Calm Calm - N/A   Overcast
9:51 AM 59.0 °F 54.0 °F 83% 29.97 in 7.0 mi Calm Calm - N/A   Overcast
10:51 AM 63.0 °F 54.0 °F 72% 29.96 in 7.0 mi West 6.9 mph - N/A   Mostly Cloudy
11:47 AM 62.6 °F 53.6 °F 72% 29.95 in 7.0 mi NW 9.2 mph - N/A   Overcast
11:51 AM 62.1 °F 54.0 °F 75% 29.96 in 7.0 mi NW 6.9 mph - N/A   Mostly Cloudy
12:41 PM 64.9 °F 54.0 °F 68% 29.93 in 8.0 mi WNW 3.5 mph - N/A   Scattered Clouds
12:51 PM 66.0 °F 54.0 °F 65% 29.94 in 8.0 mi WNW 3.5 mph - N/A   Partly Cloudy
1:51 PM 66.0 °F 54.0 °F 65% 29.92 in 8.0 mi WNW 10.4 mph - N/A   Partly Cloudy
2:51 PM 66.9 °F 54.0 °F 63% 29.91 in 7.0 mi WNW 12.7 mph - N/A   Clear
3:51 PM 66.0 °F 54.0 °F 65% 29.91 in 7.0 mi NW 10.4 mph - N/A   Clear
4:51 PM 64.0 °F 54.0 °F 70% 29.90 in 6.0 mi NW 9.2 mph - N/A   Haze
5:51 PM 61.0 °F 54.0 °F 78% 29.91 in 6.0 mi NW 9.2 mph - N/A   Haze
6:51 PM 57.0 °F 54.0 °F 89% 29.91 in 6.0 mi West 3.5 mph - N/A   Clear
7:51 PM 55.9 °F 54.0 °F 93% 29.92 in 6.0 mi Calm Calm - N/A   Clear
8:51 PM 55.9 °F 53.1 °F 90% 29.92 in 5.0 mi Calm Calm - N/A   Partly Cloudy
9:51 PM 54.0 °F 52.0 °F 93% 29.92 in 6.0 mi Calm Calm - N/A   Overcast
10:51 PM 53.1 °F 51.1 °F 93% 29.93 in 6.0 mi Calm Calm - N/A   Overcast
11:51 PM 52.0 °F 48.9 °F 89% 29.93 in 6.0 mi SSE 3.5 mph - N/A   Overcast